Location: Bambrugge
(50.9212°N, 3.9299°E)
Time: 20:46:46
(UTC+00:00)

SL-16 R/B - Pass Details

Date: 16 August 2024
Orbit: 842 x 845 km, 71.0° (Epoch: 10 September)

Event Time Altitude Azimuth Distance (km) Brightness Sun altitude
Exits shadow 01:12:17 - 274° (W) 2,687 4.6 -22.9°
Reaches altitude 10° 01:13:06 10° 280° (W) 2,470 4.5 -22.9°
Maximum altitude 01:17:09 20° 326° (NW) 1,882 4.3 -22.6°
Drops below altitude 10° 01:21:13 10° 12° (NNE) 2,478 5.7 -22.4°
Sets 01:24:24 0° 29° (NNE) 3,416 6.9 -22.2°
